Location: Sungai Bunut
(2.6333°N, 113.7333°E)
Time: 19:41:14
(UTC+00:00)

Atlas Centaur 2 - Pass Details

Date: 16 October 2021
Orbit: 459 x 1307 km, 30.4° (Epoch: 08 December)

Event Time Altitude Azimuth Distance (km) Brightness Sun altitude
Exits shadow 19:52:18 34° 163° (SSE) 1,529 3.6 -34.5°
Maximum altitude 19:52:55 35° 152° (SSE) 1,489 3.6 -34.4°
Drops below altitude 10° 19:58:08 10° 87° (E) 2,388 5.4 -33.1°
Sets 20:00:34 0° 78° (ENE) 3,182 6.1 -32.5°
